This is the latest recevied weather packets stored in our database for station/object N2XGL-1. If no packets are shown the sender has not sent any weather packets the latest 10 day(s).
| Time | Temp. | Humidity | Pressure | Rain* | Wind** | Luminosity | Snow |
|---|---|---|---|---|---|---|---|
| 1777882450 | 9.44° C | 42% | 1001.3 hPa | 0 mm | - | - | - |
| 1777882298 | 9.44° C | 42% | 1001.3 hPa | 0 mm | - | - | - |
| 1777881788 | 9.44° C | 41% | 1001.4 hPa | 0 mm | - | - | - |
| 1777881193 | 9.44° C | 40% | 1001.4 hPa | 0 mm | - | - | - |
| 1777880139 | 9.44° C | 40% | 1001.6 hPa | 0 mm | - | - | - |
| 1777879629 | 9.44° C | 40% | 1001.7 hPa | 0 mm | - | - | - |
| 1777879138 | 9.44° C | 40% | 1001.9 hPa | 0 mm | - | - | - |
| 1777878633 | 10° C | 40% | 1001.9 hPa | 0 mm | - | - | - |
| 1777878249 | 10.56° C | 40% | 1001.9 hPa | 0 mm | - | - | - |
| 1777878113 | 10.56° C | 40% | 1001.9 hPa | 0 mm | - | - | - |
| 1777877608 | 10.56° C | 40% | 1002 hPa | 0 mm | - | - | - |
| 1777877025 | 10.56° C | 42% | 1002 hPa | 0 mm | - | - | - |
| 1777876445 | 10.56° C | 43% | 1002 hPa | 0 mm | - | - | - |
| 1777875954 | 11.11° C | 43% | 1002 hPa | 0 mm | - | - | - |
| 1777875369 | 11.11° C | 40% | 1002 hPa | 0 mm | - | - | - |
| 1777874861 | 11.67° C | 42% | 1002 hPa | 0 mm | - | - | - |
| 1777874368 | 12.22° C | 38% | 1002 hPa | 0 mm | - | - | - |
| 1777874328 | 12.22° C | 38% | 1002 hPa | 0 mm | - | - | - |
| 1777873813 | 12.78° C | 37% | 1002 hPa | 0 mm | - | - | - |
| 1777873219 | 13.89° C | 38% | 1002 hPa | 0 mm | - | - | - |
| 1777872661 | 13.89° C | 37% | 1002.1 hPa | 0 mm | - | - | - |
| 1777872314 | 14.44° C | 37% | 1001.9 hPa | 0 mm | - | - | - |
| 1777872071 | 14.44° C | 37% | 1001.9 hPa | 0 mm | - | - | - |
| 1777871568 | 14.44° C | 36% | 1001.9 hPa | 0 mm | - | - | - |
| 1777871073 | 15° C | 34% | 1001.9 hPa | 0 mm | - | - | - |
* Rain latest hour (hover to see other rain measurements)
** Current wind speed in m/s (hover to see current wind gust speed)